Voltar ao catálogo

AAU CUBESAT

AtivoCiênciaSSO
NORAD 27846·PAYLOAD·🇩🇰 Denmark

Lançado Jun 30, 2003 de Plesetsk Cosmodrome

Loading…

Próximas Passagens (próximas 24 horas)

TLE

AtualizadoSource: Space-Track

Época: Sep 14, 2026, 10:54 UTC

1 27846U 03031G   26257.45474373  .00000144  00000-0  81742-4 0  9998
2 27846  98.6881 264.8922 0008038 262.9592  97.0672 14.23998093204393

Acompanhe AAU CUBESAT em tempo real com AllMySat

Download on the App Store